Content
SEND FEEDBACK

Daily
Averages
Monthly
Summary
Canada

MONTREAL, QUEBEC


Home > North America > Canada > Quebec
Elevation: 118 feet     Latitude: 45 28N     Longitude: 073 45W

WEATHER
 
SELECT A DAY
Number of Records: 200,724;   Date Range: 1/1/95 - 9/30/14
 
SHARE

PRINT THIS DATA

[ ← Previous Day ]
WEATHER ALMANAC - JANUARY 21, 2013
[ Next Day → ]
[ °C ]   °F
Weather ElementAverageHighLow
Temperature1.2 °F3.2 °F (1:00 am)-4 °F (8:00 am)
Dewpoint-10.7 °F (8:38 pm)-14.8 °F (8:00 am)
Humidity54.5 %66 % (1:00 am)33 % (1:00 pm)
Barometer28.97 in30.12 in (10:00 am) (7:00 pm)
Wind Speed7.9 mph15 mph (3:00 am)
Wind Gust18.4 mph (1:00 am)
Weather ElementAverage
Visibility18.7 mi
Wind DirectionSSW (217.5 °)

Weather ElementTotal
Precipitation---
Heating Degree Days65.4 (Base 65)
Averaged from 28 records on January 21, 2013
WEATHER CONDITIONS BREAKOUT
WIND DIRECTION BREAKOUT
WEATHER BY HOUR - JANUARY 21, 2013
[ °C ]   °F
Local TimeTemperatureDewpointHumidityBarometerVisibilityWind DirectionWind SpeedGust SpeedPrecipitationEventsConditions
1:00 AM3.0 °F-7.0 °F50 %30.03 in15.0 miWest (270°)13.8 mphScattered Clouds
1:00 AM3.2 °F-5.8 °F66 %30.03 in15.0 miWest (270°)12.7 mph18.4 mphPartly Cloudy
2:00 AM1.4 °F-7.6 °F66 %30.04 in15.0 miWest (280°)13.8 mphPartly Cloudy
3:00 AM1.4 °F-9.4 °F61 %30.05 in15.0 miWest (270°)15.0 mphPartly Cloudy
4:00 AM1.4 °F-11.2 °F56 %30.06 in15.0 miWest (270°)11.5 mphPartly Cloudy
5:00 AM-0.4 °F-9.4 °F66 %30.07 in15.0 miWest (270°)6.9 mphPartly Cloudy
6:00 AM-2.2 °F-11.2 °F66 %30.07 in15.0 miWest (260°)6.9 mphPartly Cloudy
7:00 AM-2.2 °F-13.0 °F60 %30.08 in15.0 miWest (280°)10.4 mphPartly Cloudy
7:00 AM-3.0 °F-12.0 °F49 %30.08 in15.0 miWest (280°)9.2 mphScattered Clouds
8:00 AM-4.0 °F-14.8 °F60 %30.10 in15.0 miWest (280°)10.4 mphPartly Cloudy
9:00 AM-2.2 °F-14.8 °F55 %30.11 in15.0 miWNW (290°)8.1 mphPartly Cloudy
10:00 AM-2.2 °F-14.8 °F55 %30.12 in15.0 miWNW (290°)9.2 mphMostly Cloudy
11:00 AM-0.4 °F-13.0 °F55 %30.11 in30.0 miWest (280°)4.6 mphMostly Cloudy
12:00 PM1.4 °F-14.8 °F47 %30.08 in30.0 miWest (280°)8.1 mphMostly Cloudy
1:00 PM1.4 °F-13.0 °F51 %30.05 in30.0 miWNW (290°)8.1 mphOvercast
1:00 PM1.0 °F-14.0 °F33 %30.05 in28.0 miWNW (290°)6.9 mphOvercast
2:00 PM3.2 °F-13.0 °F47 %30.03 in30.0 miWest (260°)3.5 mphOvercast
3:00 PM3.2 °F-13.0 °F47 %30.02 in30.0 miWNW (290°)2.3 mphOvercast
4:00 PM3.2 °F-13.0 °F47 %30.01 in30.0 miWNW (300°)2.3 mphMostly Cloudy
5:00 PM3.2 °F-11.2 °F51 %30.01 in15.0 miNorth (350°)3.5 mphOvercast
6:00 PM3.2 °F-11.2 °F51 %30.01 in15.0 miNW (320°)3.5 mphOvercast
7:00 PM3.2 °F-11.2 °F51 %30.00 in15.0 miNorth (10°)4.6 mphOvercast
7:00 PM3.0 °F-12.0 °F33 %30.00 in15.0 miNorth (10°)5.8 mphOvercast
8:00 PM3.2 °F-9.4 °F56 %29.99 in15.0 miNNE (30°)5.8 mphOvercast
8:38 PM3.2 °F0.0 °F15.0 miNNE (20°)5.8 mphSnowLight Snow Showers
9:00 PM3.2 °F-7.6 °F61 %29.99 in15.0 miNorth (10°)5.8 mphSnowLight Snow Showers
10:00 PM3.2 °F-5.8 °F66 %29.98 in15.0 miNNE (20°)11.5 mphMostly Cloudy
11:00 PM1.4 °F-7.6 °F66 %29.96 in15.0 miNNE (20°)10.4 mphOvercast
Hourly data recorded from CYUL, located miles away from Montreal, Quebec







STORIES FROM OUR PARTNERS